Flag for Estonia Weather past 2 weeks in Tartu, Estonia

Now
64 °F

Mild.


Feels Like: 64 °F
Forecast: 64 / 87 °F
Wind: 2 mph from North

Location: Tartu/Ulenurme

Current Time: Jul 29, 2014 at 7:55:21 AM

Latest Report: Jul 29, 2014 at 6:50 AM


Visibility: 5 mi

Pressure: 29.89 "Hg

Humidity: 94%

Dew point: 63 °F

Location of TartuLocation

Historic Weather in Tartu — Graph

°F

Tartu temperature yesterday

Maximum temperature yesterday: 86 °F (at 1:50 PM)
Minimum temperature yesterday: 61 °F (at 3:50 AM)
Average temperature yesterday: 73 °F

Past Weeks' High & Low Weather Summary

 TemperatureHumidityPressure
High86 °F (Jul 26, 3:50 PM)94% (Jul 14, 5:50 AM)30.21 "Hg (Jul 14, 5:50 AM)
Low55 °F (Jul 17, 4:50 AM)33% (Jul 26, 3:50 PM)29.86 "Hg (Jul 14, 5:50 AM)
Average70 °F70%30.08 "Hg
* Reported Jul 14 5:50 AM — Jul 29 5:50 AM, Tartu, Weather by CustomWeather, © 2014

Note: Actual official high and low records may vary slightly from our data, if they occured in-between our weather recording intervals... More about our weather records

Advertising

Tartu weather history for previous 24 hours

 ConditionsComfort  
Time TempWeatherWind HumidityBarometerVisibility
5:50 AM
Jul 29
63 °FFog.3 mph94%29.89 "Hg0 mi
4:50 AM64 °FFog.1 mph88%29.92 "Hg2 mi
3:50 AM64 °FPassing clouds.No wind94%29.92 "HgN/A
2:50 AM64 °FPassing clouds.3 mph94%29.92 "HgN/A
1:50 AM66 °FPassing clouds.2 mph88%29.92 "HgN/A
12:50 AM66 °FLight rain. Mostly cloudy.6 mph94%29.95 "Hg4 mi
11:50 PM
Jul 28
68 °FRain. Partly cloudy.7 mph83%29.95 "Hg6 mi
10:50 PM72 °FMostly cloudy.10 mph73%29.95 "HgN/A
9:50 PM72 °FPassing clouds.5 mph78%29.95 "HgN/A
8:50 PM72 °FScattered clouds.3 mph73%29.95 "HgN/A
7:50 PM73 °FPassing clouds.7 mph74%29.95 "HgN/A
6:50 PM73 °FPassing clouds.6 mph74%29.95 "HgN/A
5:50 PM77 °FThundershowers. Scattered clouds.15 mph57%29.98 "HgN/A
4:50 PM79 °FThundershowers. Scattered clouds.14 mph54%29.98 "HgN/A
3:50 PM86 °FScattered clouds.7 mph38%29.98 "HgN/A
2:50 PM86 °FPassing clouds.8 mph38%30.01 "HgN/A
1:50 PM86 °FPassing clouds.10 mph43%30.01 "HgN/A
12:50 PM82 °FPassing clouds.7 mph45%30.04 "HgN/A
11:50 AM84 °FPassing clouds.8 mph43%30.04 "HgN/A
10:50 AM82 °FPassing clouds.8 mph48%30.04 "HgN/A
9:50 AM81 °FPassing clouds.7 mph62%30.04 "HgN/A
8:50 AM77 °FSunny.3 mph65%30.04 "Hg10 mi
7:50 AM72 °FSunny.5 mph69%30.07 "Hg10 mi
Weather by CustomWeather, © 2014

See weather overviewHow to use our weather pages